全部
Leesville Airport (Leesville, LA) L39 天氣
There is no TAF data available at L39 or any nearby airports.
There is no METAR data available at L39. Showing METAR data for KDRI (23 mi S).
DRI近期METAR歷史資料(L39無資料)
| Date | Time (CDT) | Flight Rules | Wind Dir. | Speed | Type | Height AGL (ft) | Visibility | Temp (°C) | Temp (°F) | Dew Point (°C) | Dew Point (°F) | Rel. Humid. | Pressure | Density Altitude | Remarks |
|---|---|---|---|---|---|---|---|---|---|---|---|---|---|---|---|
| 02-五月 | 09:55 | VFR | 10° | 7 kt | 10 miles | 18° | 64° | 10° | 50° | 63% | 30.12 in Hg | 361 ft | |||
| 02-五月 | 09:35 | VFR | 10° | 10 kt | 10 miles | 17° | 62° | 12° | 53° | 72% | 30.12 in Hg | 241 ft | |||
| 02-五月 | 09:15 | VFR | 350° | 8 kt | 10 miles | 16° | 60° | 13° | 55° | 82% | 30.11 in Hg | 131 ft | |||
| 02-五月 | 08:55 | VFR | 360° | 6 kt | 10 miles | 15° | 59° | 13° | 55° | 89% | 30.10 in Hg | 21 ft | |||
| 02-五月 | 08:35 | VFR | 360° | 7 kt | 10 miles | 14° | 57° | 14° | 57° | 96% | 30.09 in Hg | -89 ft | |||
| 02-五月 | 08:15 | VFR | 360° | 6 kt | 10 miles | 13° | 55° | 13° | 55° | 100% | 30.09 in Hg | -209 ft | |||
| 02-五月 | 07:55 | VFR | 360° | 6 kt | 10 miles |
13° | 55° | 13° | 55° | 100% | 30.08 in Hg | -199 ft | |||
| 02-五月 | 07:35 | VFR | Variable | 5 kt | 9 miles |
12° | 53° | 12° | 53° | 100% | 30.07 in Hg | -309 ft | |||
| 02-五月 | 07:15 | VFR | 360° | 5 kt | 7 miles | 11° | 51° | 11° | 51° | 100% | 30.06 in Hg | -419 ft | |||
| 02-五月 | 06:55 | VFR | 360° | 6 kt | 7 miles | 11° | 51° | 11° | 51° | 100% | 30.06 in Hg | -419 ft | |||
| 02-五月 | 06:35 | VFR | Variable | 6 kt | 7 miles |
11° | 51° | 11° | 51° | 100% | 30.05 in Hg | -409 ft | |||
| 02-五月 | 06:15 | VFR | 360° | 6 kt | 9 miles | 11° | 51° | 11° | 51° | 100% | 30.04 in Hg | -399 ft | |||
| 02-五月 | 05:55 | VFR | 10° | 5 kt | 9 miles | 11° | 51° | 11° | 51° | 100% | 30.03 in Hg | -389 ft | |||
| 02-五月 | 05:35 | VFR | Variable | 5 kt | 9 miles | 11° | 51° | 11° | 51° | 100% | 30.03 in Hg | -389 ft | |||
| 02-五月 | 05:15 | VFR | 10° | 5 kt | 9 miles | 11° | 51° | 11° | 51° | 100% | 30.03 in Hg | -389 ft | |||
| 02-五月 | 04:55 | VFR | 330° | 5 kt | 9 miles |
11° | 51° | 11° | 51° | 100% | 30.03 in Hg | -389 ft | |||
| 02-五月 | 04:35 | VFR | Calm | 10 miles | 11° | 51° | 11° | 51° | 100% | 30.02 in Hg | -379 ft | ||||
| 02-五月 | 04:15 | VFR | 40° | 4 kt | 10 miles | 11° | 51° | 11° | 51° | 100% | 30.01 in Hg | -369 ft | |||
| 02-五月 | 03:55 | VFR | 20° | 4 kt | 10 miles | 11° | 51° | 11° | 51° | 100% | 30.01 in Hg | -369 ft | |||
| 02-五月 | 03:35 | VFR | 30° | 4 kt | 10 miles | 11° | 51° | 11° | 51° | 100% | 30.01 in Hg | -369 ft | |||
| 02-五月 | 03:15 | VFR | 30° | 3 kt | 10 miles | 11° | 51° | 11° | 51° | 100% | 30.01 in Hg | -369 ft | |||
| 02-五月 | 02:55 | VFR | 40° | 4 kt | 10 miles | 11° | 51° | 11° | 51° | 100% | 30.01 in Hg | -369 ft | |||
| 02-五月 | 02:35 | VFR | 40° | 4 kt | 10 miles | 11° | 51° | 11° | 51° | 100% | 30.01 in Hg | -369 ft | |||
| 02-五月 | 02:15 | VFR | 20° | 5 kt | 10 miles | 11° | 51° | 11° | 51° | 100% | 30.02 in Hg | -379 ft |
登入
| 您的瀏覽器不支援. 升級您的瀏覽器 |
